Location: Newark
(11.2914°S, 14.4718°E)
Time: 21:02:54
(UTC+00:00)

Altair - All Passes

Search period start: 19 October 2019 00:00
Search period end: 29 October 2019 00:00
Orbit: 1501 x 1683 km, 47.2° (Epoch: 18 October)

Date Brightness Start Highest point End Pass type
(mag) Time Alt. Az. Time Alt. Az. Time Alt. Az.
19 Oct - 04:26:10 10° S 04:32:13 19° SE 04:38:14 10° E daylight
19 Oct - 06:28:18 10° SW 06:37:31 86° SE 06:46:49 10° NE daylight
19 Oct - 08:36:17 10° W 08:41:51 17° NW 08:47:29 10° NNW daylight
19 Oct - 17:25:41 10° NNE 17:28:58 12° NE 17:32:13 10° ENE visible
19 Oct - 19:23:34 10° NNW 19:33:37 70° NE 19:43:25 10° SE visible
19 Oct - 21:30:27 10° W 21:38:39 29° SW 21:46:42 10° SSE visible
20 Oct - 04:01:25 10° S 04:06:54 17° SE 04:12:20 10° ESE visible
20 Oct - 06:03:10 10° SW 06:12:23 78° SE 06:21:38 10° NE daylight
20 Oct - 08:10:27 10° W 08:16:41 20° NW 08:23:01 10° N daylight
20 Oct - 18:58:28 10° NNW 19:08:26 63° NE 19:18:10 10° SE visible
20 Oct - 21:04:49 10° WNW 21:13:22 32° SW 21:21:46 10° SSE visible
21 Oct - 03:36:45 10° S 03:41:34 15° SE 03:46:20 10° ESE visible
21 Oct - 05:38:04 10° SW 05:47:14 70° SE 05:56:25 10° NE daylight
21 Oct - 07:44:45 10° W 07:51:32 23° NW 07:58:26 10° N daylight
21 Oct - 18:33:25 10° NNW 18:43:15 56° NE 18:52:53 10° SE visible
21 Oct - 20:39:13 10° WNW 20:48:07 35° SW 20:56:50 10° SSE visible
22 Oct - 03:12:13 10° S 03:16:12 13° SSE 03:20:10 10° ESE visible
22 Oct - 05:12:59 10° SSW 05:22:05 63° SE 05:31:09 10° NE daylight
22 Oct - 07:19:08 10° WSW 07:26:23 26° NW 07:33:45 10° N daylight
22 Oct - 18:08:23 10° NNW 18:18:04 51° NE 18:27:34 10° SE visible
22 Oct - 20:13:40 10° WNW 20:22:51 39° SW 20:31:51 10° SSE visible
23 Oct - 02:47:54 10° SSE 02:50:49 12° SSE 02:53:43 10° SE visible
23 Oct - 04:47:55 10° SSW 04:56:55 56° SE 05:05:53 10° ENE daylight
23 Oct - 06:53:36 10° WSW 07:01:15 30° NW 07:09:00 10° N daylight
23 Oct - 17:43:23 10° NNW 17:52:53 45° NE 18:02:13 10° ESE visible
23 Oct - 19:48:10 10° WNW 19:57:36 44° SW 20:06:51 10° SSE visible
24 Oct - 02:24:24 10° SSE 02:25:25 10° SSE 02:26:25 10° SE visible
24 Oct - 04:22:52 10° SSW 04:31:45 50° SE 04:40:33 10° ENE daylight
24 Oct - 06:28:08 10° WSW 06:36:07 34° NW 06:44:11 10° N daylight
24 Oct - 17:18:27 10° NNW 17:27:42 40° NE 17:36:49 10° ESE visible
24 Oct - 19:22:43 10° WNW 19:32:22 49° SW 19:41:49 10° SSE visible
24 Oct - 21:37:29 10° SW 21:38:58 10° SSW 21:40:27 10° SSW visible
25 Oct - 03:57:50 10° SSW 04:06:34 45° SE 04:15:12 10° ENE visible
25 Oct - 06:02:43 10° WSW 06:11:00 39° NW 06:19:20 10° NNE daylight
25 Oct - 16:53:33 10° N 17:02:31 36° NE 17:11:22 10° ESE daylight
25 Oct - 18:57:19 10° WNW 19:07:08 54° SW 19:16:47 10° SSE visible
25 Oct - 21:10:12 10° SW 21:13:32 12° SSW 21:16:49 10° SSW visible
26 Oct - 03:32:49 10° SSW 03:41:22 40° SE 03:49:48 10° ENE visible
26 Oct - 05:37:20 10° WSW 05:45:52 44° NW 05:54:26 10° NNE daylight
26 Oct - 16:28:43 10° N 16:37:20 32° NE 16:45:51 10° ESE daylight
26 Oct - 18:31:57 10° NW 18:41:54 60° SW 18:51:42 10° SSE visible
26 Oct - 20:43:39 10° WSW 20:48:05 14° SSW 20:52:31 10° S visible
27 Oct - 03:07:49 10° SSW 03:16:10 36° SE 03:24:22 10° ENE visible
27 Oct - 05:12:00 10° WSW 05:20:45 49° NW 05:29:30 10° NNE daylight
27 Oct - 16:03:56 10° N 16:12:09 28° NE 16:20:17 10° ESE daylight
27 Oct - 18:06:38 10° NW 18:16:41 66° SW 18:26:37 10° SSE visible
27 Oct - 20:17:22 10° WSW 20:22:41 15° SW 20:27:57 10° S visible
28 Oct - 02:42:52 10° SSW 02:50:57 33° SE 02:58:53 10° ENE visible
28 Oct - 04:46:42 10° SW 04:55:38 55° NW 05:04:32 10° NNE daylight
28 Oct - 15:39:13 10° N 15:46:56 25° NE 15:54:38 10° ESE daylight
28 Oct - 17:41:21 10° NW 17:51:29 73° SW 18:01:30 10° SE visible
28 Oct - 19:51:15 10° WSW 19:57:18 17° SW 20:03:17 10° S visible
